Regional Weather Roundup
Issued by NWS

Home | Current Version | Previous Version | Text Only | Print | Product List | Glossary Off
Versions: 1 2 3 4 5 6 7 8 9 10 11 12 13 14 15 16 17 18 19 20 21 22 23 24 25 26 27 28 29 30 31 32 33 34 35 36 37 38 39 40 41 42 43 44 45 46 47 48 49 50

000
ASUS43 KIND 190759
RWRIN

WEATHER ROUNDUP FOR INDIANA
NATIONAL WEATHER SERVICE INDIANAPOLIS IN
300 AM EST FRI JAN 19 2018

NOTE: "FAIR" INDICATES FEW OR NO CLOUDS BELOW 12,000 FEET WITH NO
SIGNIFICANT WEATHER AND/OR OBSTRUCTIONS TO VISIBILITY.

* - STATION DOES NOT REPORT WEATHER SUCH AS PRECIPITATION OR FOG.

+ - STATION NOT QUALITY CONTROLLED BY THE NATIONAL WEATHER SERVICE.
    USE DATA WITH CAUTION...ESPECIALLY DEWPOINT AND RELATIVE
    HUMIDITY OBSERVATIONS.

INZ001>003-010>013-019-020-190900-
NORTHWEST INDIANA

CITY           SKY/WX    TMP DP  RH WIND       PRES   REMARKS
KNOX *+        FAIR      27  18  69 SW16      30.01F WCI  14
MICHIGAN CITY+ FAIR      27  18  69 S9        29.99S WCI  17
MONTICELLO +   FAIR      23  13  65 SW13      30.05S WCI  11
RENSSELAER +   FAIR      25  16  68 SW15      30.03F WCI  12

$$

LMZ046-743>745-190900-
SOUTHERN LAKE MICHIGAN

STATION/POSITION TIME  TEMP    WIND        PRES    WAVE
                       AIR SEA DIR/SP/G            HT
                 (UTC) (F)     (DEG/KT/KT) (MB)    (FT)
BURNS HARBOR     0740   27     200/ 13/ 17 1015.6F
MICHIGAN CITY    0730   29     190/ 21/ 24   N/A

$$

INZ004-005-014>016-021>024-190900-
NORTH CENTRAL INDIANA

CITY           SKY/WX    TMP DP  RH WIND       PRES   REMARKS
GOSHEN         FAIR      23  14  68 SW16G24   30.00F WCI  10
PERU/GRISSOM   FAIR      23  15  70 SW16      30.04F WCI  10
SOUTH BEND     FAIR      23  15  71 SW15      29.99S WCI  10

$$

INZ006>009-017-018-025>027-190900-
NORTHEAST INDIANA

CITY           SKY/WX    TMP DP  RH WIND       PRES   REMARKS
FORT WAYNE     FAIR      24  14  65 SW14      30.04F WCI  12
KENDALLVILLE + FAIR      24  15  67 SW14      29.98F WCI  12

$$

INZ028-029-035-036-043>045-051>053-190900-
WEST CENTRAL INDIANA

CITY           SKY/WX    TMP DP  RH WIND       PRES   REMARKS
CRAWFORDSVL +  FAIR      20  13  75 MISG        N/A
GREENCASTLE +  FAIR      23  12  63 SW8G16    30.13F WCI  14
LAFAYETTE      FAIR      23  14  68 SW9       30.08F WCI  13
TERRE HAUTE    FAIR      19  10  68 S8        30.15F WCI   9

$$

INZ030>032-037>040-046>048-054>057-064-065-190900-
CENTRAL INDIANA

CITY           SKY/WX    TMP DP  RH WIND       PRES   REMARKS
GREENWOOD *+   FAIR      25  13  59 SW9       30.15S WCI  15
INDIANAPOLIS   FAIR      22  13  68 SW12      30.13S WCI  10
-EAGLE CREEK   FAIR      22  12  65 S7        30.12S WCI  13
MT COMFORT *+  FAIR      19  12  73 S6        30.13S WCI  11
SHELBYVILLE    FAIR      20   9  62 S9        30.15R WCI   9

$$

INZ033-034-041-042-049-050-058-059-190900-
EAST CENTRAL INDIANA

CITY           SKY/WX    TMP DP  RH WIND       PRES   REMARKS
MUNCIE         FAIR      23  11  60 SW14      30.09S WCI  11
RICHMOND +     FAIR      21  12  68 SW14      30.13R WCI   8

$$

INZ060-061-067>069-081>083-085>088-190900-
SOUTHWEST INDIANA

CITY           SKY/WX    TMP DP  RH WIND       PRES   REMARKS
EVANSVILLE     FAIR      23  14  68 SW10      30.24S WCI  12
HUNTINGBURG +  FAIR      19  11  70 S7        30.24S WCI  10

$$

INZ062-063-066-070>080-084-089>092-190900-
SOUTH CENTRAL AND SOUTHEAST INDIANA

CITY           SKY/WX    TMP DP  RH WIND       PRES   REMARKS
BLOOMINGTON    FAIR      24  11  57 SW14G22   30.16F WCI  12
FRENCH LICK *+ FAIR      23   9  54 SW7       30.20S WCI  15
MADISON *+     FAIR      21  12  68 S7        30.21F WCI  13
SEYMOUR +      FAIR      21   9  58 S6        30.20S WCI  14

$$





USA.gov is the U.S. government's official web portal to all federal, state and local government web resources and services.